Theta_e
326 338 341 341 338 338 336 334 334 334 329 324 329 328 329 330 330 331 330 329 332 333 331 332 332 332 332 331 330 331 330 330 329
327 333 340 340 339 337 337 336 334 334 333 330 326 328 329 328 329 330 330 331 333 333 331 332 333 332 332 331 331 331 331 330 330
331 335 339 340 340 337 336 335 334 334 334 334 332 327 329 328 328 330 331 330 333 333 330 328 329 330 329 329 328 328 326 325 326
339 337 338 339 340 337 335 333 333 334 334 333 332 330 327 327 327 328 331 331 335 334 326 325 327 327 327 326 325 324 323 323 322
340 338 337 338 339 337 335 333 331 331 333 332 330 332 328 326 326 327 330 331 336 335 327 324 325 327 326 324 324 322 322 322 320
339 340 338 336 338 337 336 334 333 332 330 329 329 330 332 329 324 325 328 330 334 336 332 326 326 327 325 324 324 323 322 322 321
337 338 339 338 335 335 335 334 333 332 332 328 328 331 332 331 327 324 327 327 330 336 335 329 325 326 327 326 325 324 324 324 323
337 337 337 338 338 336 335 335 333 332 331 331 328 329 332 331 327 323 323 325 327 336 337 332 326 325 328 328 327 327 327 327 327
336 336 336 337 338 338 337 335 334 332 332 330 331 329 327 326 326 324 323 325 328 332 336 336 332 328 329 332 331 331 330 330 328
335 336 336 336 337 338 338 336 334 333 333 332 330 329 329 329 327 329 329 325 327 328 332 336 336 335 334 333 332 331 331 331 332
335 337 337 337 337 337 337 336 335 334 334 333 333 332 332 329 327 327 329 329 326 329 328 331 334 336 336 335 334 332 331 330 331
333 334 335 335 336 338 335 337 336 335 334 334 334 334 334 333 330 326 325 329 329 329 329 329 328 328 331 334 334 333 333 332 332
332 333 334 334 335 335 335 336 337 336 335 335 334 334 333 333 332 330 328 327 328 328 328 328 328 328 327 331 333 333 333 333 333
328 331 332 334 335 334 334 334 335 336 336 336 336 335 335 334 334 332 328 328 328 328 327 327 327 327 327 327 329 330 331 332 331
319 328 331 331 331 333 332 332 333 333 333 334 334 333 331 330 332 333 332 331 330 329 331 329 327 326 326 326 326 326 326 327 329
308 324 327 328 328 331 331 331 332 333 333 334 331 330 328 326 327 328 329 330 330 331 331 331 331 329 328 327 326 326 326 325 326
311 321 326 326 327 330 329 330 330 330 331 330 326 323 322 323 322 323 324 325 326 327 327 329 331 330 330 329 327 326 326 326 326
320 324 324 326 326 328 328 329 329 329 330 328 327 324 322 319 324 324 325 325 325 326 327 328 327 328 329 329 328 328 327 326 326
315 323 324 326 326 326 326 326 327 327 326 326 326 326 325 325 325 323 324 324 325 325 326 326 326 326 327 327 327 328 328 327 326
321 323 323 325 325 324 324 324 324 324 324 322 323 323 323 324 325 325 324 324 324 324 324 325 325 325 325 326 326 326 326 326 326
Wind_Speed
9 9 9 9 9 8 7 7 8 8 10 10 9 7 4 5 6 6 5 3 5 4 4 5 6 7 6 6 6 7 6 7 7
9 11 10 11 9 8 7 7 8 9 9 10 8 7 5 4 5 6 5 2 4 4 3 4 4 4 4 4 4 5 5 5 5
10 11 11 12 12 10 9 8 9 9 9 9 9 8 6 4 5 7 5 3 4 5 4 3 4 3 3 3 3 3 2 3 3
13 13 12 13 14 12 11 10 11 12 12 11 10 9 9 8 6 8 8 6 6 7 5 4 5 4 4 3 3 3 2 1 1
15 15 14 15 16 15 13 11 10 12 13 13 13 12 11 11 9 8 10 9 8 8 7 6 7 6 6 5 5 5 4 3 2
18 18 18 17 17 17 16 14 13 12 13 14 14 14 14 13 13 12 12 12 12 12 10 9 9 9 9 9 8 7 7 6 6
21 21 20 20 19 19 18 17 15 13 14 14 14 15 15 15 14 14 13 13 14 14 13 12 12 12 12 11 11 10 10 9 9
23 23 23 23 22 21 21 19 18 17 16 16 17 17 17 16 16 17 17 15 16 17 17 15 14 15 14 14 14 13 13 12 12
26 26 25 25 26 25 24 23 22 20 18 18 19 19 19 18 17 18 19 20 18 20 20 19 17 17 17 17 16 16 16 15 14
26 27 27 27 26 27 26 25 24 23 21 20 20 21 21 22 21 21 19 21 21 21 22 21 20 19 19 19 19 19 19 18 18
30 29 28 27 28 28 26 25 25 24 23 22 23 23 22 22 23 24 22 21 22 22 24 25 24 22 21 21 21 22 22 21 21
22 28 27 28 30 28 24 22 23 24 24 25 24 23 23 21 21 23 26 25 23 26 25 28 28 27 24 23 25 26 26 25 23
26 22 24 27 26 24 22 19 21 23 23 21 21 21 19 20 21 23 24 26 26 27 28 30 31 31 30 27 26 28 27 27 28
21 28 23 20 21 23 22 20 20 22 22 22 22 22 21 21 24 27 27 28 28 28 30 33 34 34 35 34 31 30 29 29 30
18 22 25 24 26 26 24 19 16 18 16 14 15 16 17 19 21 25 26 29 31 32 33 32 34 35 34 36 38 35 32 31 31
21 21 26 22 26 28 27 19 18 18 15 10 11 16 19 21 25 27 30 32 34 35 36 36 38 38 38 36 40 40 37 36 33
20 21 20 21 25 26 22 20 17 14 10 5 1 3 5 12 18 21 25 31 33 35 36 38 38 40 41 39 37 39 41 39 36
16 19 21 19 19 17 14 15 12 12 8 14 8 1 4 3 13 13 17 23 26 29 31 32 34 35 37 41 41 39 40 41 41
15 18 17 15 12 8 4 5 6 7 9 10 13 19 19 6 8 9 16 21 24 27 31 34 34 33 32 33 36 40 40 39 40
8 13 15 15 12 5 1 5 4 6 11 12 11 12 16 18 8 13 12 21 27 29 33 36 39 39 37 37 37 37 37 36 38
Wind_Direction
211 207 214 207 189 186 181 177 177 169 164 164 163 153 147 133 142 155 143 129 141 142 124 124 122 117 112 108 108 106 99 94 87
223 216 216 210 203 199 204 204 198 187 176 175 179 178 176 168 171 170 168 143 167 158 146 145 136 130 127 124 117 113 109 104 97
226 224 231 215 213 211 216 221 221 208 201 194 191 203 206 199 195 196 196 187 192 183 185 179 173 165 162 158 153 143 127 103 92
233 232 231 219 218 219 223 226 221 225 223 222 218 213 216 219 218 224 221 211 207 203 217 212 207 207 205 207 209 201 194 177 145
234 231 229 224 224 225 229 230 227 225 230 234 230 220 221 228 231 235 224 229 221 220 234 231 224 224 227 227 229 232 233 240 251
236 234 229 228 229 232 233 232 231 237 235 233 235 235 232 235 237 236 231 233 230 231 242 242 238 236 236 236 236 237 239 243 249
238 237 237 233 231 233 233 233 235 239 239 237 234 233 236 243 246 238 234 241 236 235 242 252 246 244 244 246 246 246 244 245 250
242 238 236 235 233 231 231 231 232 237 241 239 240 239 238 244 249 245 241 247 246 237 242 253 253 249 247 248 249 250 250 251 252
246 243 239 236 233 231 230 232 234 237 242 243 244 248 250 250 252 252 249 249 257 244 244 247 258 256 251 248 250 253 254 254 255
248 245 241 240 236 231 230 230 232 237 243 245 248 251 254 257 258 258 258 254 255 254 244 245 250 254 254 253 252 253 255 255 255
263 250 242 241 237 240 235 235 231 237 243 249 251 255 259 262 262 260 260 260 255 259 254 250 249 251 255 255 256 260 261 258 256
273 266 251 245 246 239 237 234 236 241 246 253 254 256 259 264 268 264 261 260 261 260 261 258 259 260 259 257 256 258 264 265 262
262 269 258 254 250 243 239 233 234 239 245 253 260 264 267 271 269 267 266 262 263 263 261 261 260 260 264 260 258 257 258 263 266
275 260 259 257 253 245 240 233 234 237 240 248 260 267 268 270 268 269 265 266 267 267 268 265 263 261 261 264 262 261 259 258 262
286 270 262 258 266 247 241 234 234 244 245 250 256 264 270 269 264 265 267 267 267 268 270 271 267 262 261 265 260 261 264 264 262
278 272 261 264 260 248 233 229 230 236 242 252 272 278 278 273 268 267 267 267 268 268 270 267 266 267 266 267 261 261 262 262 264
274 268 265 259 261 244 240 224 222 239 241 216 290 322 318 263 266 273 273 272 272 269 271 269 266 267 270 265 265 264 264 261 263
275 262 260 254 248 241 223 224 222 236 231 241 237 231 246 323 281 276 281 280 281 279 278 274 272 272 268 270 273 266 267 266 261
281 250 253 214 215 213 203 235 240 248 249 268 262 260 267 279 292 280 280 274 271 273 276 277 276 275 274 272 274 270 268 269 265
252 234 229 204 184 196 30 3 337 301 278 274 272 279 273 267 266 285 288 277 262 265 268 268 273 270 272 274 276 274 275 272 266